Regional Weather Roundup
Issued by NWS

Home | Current Version | Previous Version | Graphics & Text | Print | Product List | Glossary On
Versions: 1 2 3 4 5 6 7 8 9 10 11 12 13 14 15 16 17 18 19 20 21 22 23 24 25 26 27 28 29 30 31 32 33 34 35 36 37 38 39 40 41 42 43 44 45 46 47 48 49 50
625
ASUS45 KABQ 242210
RWRNM
NEW MEXICO REGIONAL WEATHER ROUNDUP
NATIONAL WEATHER SERVICE ALBUQUERQUE NM
400 PM MDT TUE APR 24 2018

NOTE: "FAIR" MEANS FEW OR NO CLOUDS BELOW 12,000 FEET AGL WITH NO
       SIGNIFICANT WEATHER OR OBSTRUCTIONS TO VISION.

      THIS PRODUCT IS RELEASED AS TWO VERSIONS.  ONE VERSION NEAR
      THE TOP OF THE HOUR CONTAINING PRELIMINARY DATA FROM ALBUQUERQUE
      AND OTHER STATIONS.  A FINAL VERSION WITH ADDITIONAL DATA IS
      ISSUED ABOUT 10 MINUTES AFTER THE HOUR.

NMZ501-503-504-510>518-242300-
NORTHWEST PLATEAU/NORTHCENTRAL MOUNTAINS

CITY           SKY/WX    TMP DP  RH WIND       PRES   REMARKS
FARMINGTON     FAIR      78  20  11 W17G25    30.04F
LOS ALAMOS     FAIR      74  10   8 S18G25    30.13F
SANTA FE       FAIR      77  12   8 SW17      30.09F
TAOS           FAIR      73  14  10 W24G39    30.10F
ANGEL FIRE     PTSUNNY   54  31  42 S18G26    30.22F

$$
NMZ402-403-502-505>509-242300-
WESTCENTRAL MOUNTAINS/SOUTHWEST MOUNTAINS

CITY           SKY/WX    TMP DP  RH WIND       PRES   REMARKS
GALLUP         FAIR      78  10   7 SW17G30   30.12F
GRANTS         FAIR      78  12   8 S10G20    30.12F
SILVER CITY    FAIR      82  11   7 SW14G20   30.09F

$$
NMZ407-409-411-412-242300-
SOUTHERN DESERTS

CITY           SKY/WX    TMP DP  RH WIND       PRES   REMARKS
DEMING         FAIR      88  20   8 SW13G24   30.01F
LAS CRUCES     FAIR      89  18   7 W16       30.02F
ALAMOGORDO     FAIR      88  23   9 S7        30.01F
T OR C         FAIR      88   8   5 SE8G23    29.99F

$$
NMZ519>523-242300-
CENTRAL VALLEYS/CENTRAL HIGHLANDS

CITY           SKY/WX    TMP DP  RH WIND       PRES   REMARKS
ALBUQUERQUE    PTSUNNY   81  16   9 S9        30.04F
DOUBLE EAGLE   PTSUNNY   81  16   9 S17G23    30.06F
MORIARTY ARPT  FAIR      80  14   8 SW7       30.12F
CLINES CORNERS FAIR      67  33  28 SE22G33   30.19F
BELEN          FAIR      84  11   6 S7        30.02F
SOCORRO        FAIR      89  17   7 S13G29    30.00F

$$
NMZ524>526-539-540-242300-
SOUTHCENTRAL MOUNTAINS

CITY           SKY/WX    TMP DP  RH WIND       PRES   REMARKS
RUIDOSO        FAIR      72  28  20 SE16      30.20F

$$
NMZ527>531-242300-
NORTHEAST HIGHLANDS/NORTHEAST PLAINS

CITY           SKY/WX    TMP DP  RH WIND       PRES   REMARKS
LAS VEGAS      FAIR      63  34  33 SE21G26   30.19F
RATON          FAIR      50  30  46 NE23G33   30.24F
CLAYTON        CLOUDY    41  35  79 N26G36    30.27F

$$
NMZ532>537-242300-
EASTCENTRAL PLAINS

CITY           SKY/WX    TMP DP  RH WIND       PRES   REMARKS
SANTA ROSA     FAIR      68  37  32 E17G26    30.13F
TUCUMCARI      FAIR      63  42  46 NE23      30.15F
CANNON AFB     FAIR      73  44  35 NE17G25   30.11F
CLOVIS AIRPORT FAIR      71  46  40 NE25G33   30.11

$$
NMZ028-029-538-242300-
SOUTHEAST PLAINS

CITY           SKY/WX    TMP DP  RH WIND       PRES   REMARKS
ROSWELL        FAIR      87  36  16 NE21      29.97F
ARTESIA        FAIR      93  25   8 VRB7G16   29.93F
CARLSBAD       FAIR      90  27  10 VRB3      29.91F
HOBBS          SUNNY     91  18   6 VRB5G12   29.96F


$$




USA.gov is the U.S. government's official web portal to all federal, state and local government web resources and services.